SCP
0 0 0 0 0 0 0 0 0 0 0 0 0 1 2 2 2 2 2 1 1 0 0 0 0 0 0 0 0 1 3 5 5 5 4 3 3 2 3 2 2 1 1 1
0 0 0 0 0 0 0 0 0 0 0 0 1 1 1 2 2 2 2 1 1 1 0 0 0 0 0 0 0 1 2 4 5 5 4 3 2 3 3 2 2 1 1 1
0 0 0 0 0 0 0 0 0 0 0 0 1 1 1 1 1 2 2 1 1 1 0 0 0 0 0 0 0 0 1 3 4 4 3 2 3 3 3 2 2 2 2 1
0 0 0 0 0 0 0 0 0 0 0 0 1 1 1 1 1 1 1 1 1 0 0 0 0 0 0 0 0 0 0 1 2 3 2 2 2 3 3 2 2 2 2 2
0 0 0 0 0 0 0 0 0 0 0 0 1 1 1 1 1 1 1 0 0 0 0 0 0 0 0 0 0 0 0 0 1 1 1 1 2 2 2 2 3 3 3 2
0 0 0 0 0 0 0 0 0 0 0 0 0 0 0 0 0 0 0 0 0 0 0 0 0 0 0 0 0 0 0 0 0 0 1 1 1 1 1 2 2 2 3 3
0 0 0 0 0 0 0 0 0 0 0 0 0 0 0 0 0 0 0 0 0 0 0 0 0 0 0 0 0 0 0 0 0 0 0 0 1 1 1 1 2 2 2 2
0 0 0 0 0 0 0 0 0 0 0 0 0 0 0 0 0 0 0 0 0 0 0 0 0 0 0 0 0 0 0 0 0 0 0 0 0 0 1 1 1 2 2 1
0 0 0 0 0 0 0 0 0 0 0 0 0 0 0 0 0 0 0 0 0 0 0 0 0 0 0 0 0 0 0 0 0 0 0 0 0 0 0 1 1 1 1 1
0 0 0 0 0 0 0 0 0 0 0 0 0 0 0 0 0 0 0 0 0 0 0 0 0 0 0 0 0 0 0 0 0 0 0 0 0 0 0 0 0 0 1 1
0 0 0 0 0 0 0 0 0 0 0 0 0 0 0 0 0 0 0 0 0 0 0 0 0 0 0 0 0 0 0 0 0 0 0 0 0 0 0 0 0 0 0 0
0 0 0 0 0 0 0 0 0 0 0 0 0 0 0 0 0 0 0 0 0 0 0 0 0 0 0 0 0 0 0 0 0 0 0 0 0 0 0 0 0 0 0 0
0 0 0 0 0 0 0 0 0 0 0 0 0 0 0 0 0 0 0 0 0 0 0 0 0 0 0 0 0 0 0 0 0 0 0 0 0 0 0 0 0 0 0 0
0 0 0 0 0 0 0 0 0 0 0 0 0 0 0 0 0 0 0 0 0 0 0 0 0 0 0 0 0 0 0 0 0 0 0 0 0 0 0 0 0 0 0 0
0 0 0 0 0 0 0 0 0 0 0 0 0 0 0 0 0 0 0 0 0 0 0 0 0 0 0 0 0 0 0 0 0 0 0 0 0 0 0 0 0 0 0 0
0 0 0 0 0 0 0 0 0 0 0 0 0 0 0 0 0 0 0 0 0 0 0 0 0 0 0 0 0 0 0 0 0 0 0 0 0 0 0 0 0 0 0 0
0 0 0 0 0 0 0 0 0 0 0 0 0 0 0 0 0 0 0 0 0 0 0 0 0 0 0 0 0 0 0 0 0 0 0 0 0 0 0 0 0 0 0 0
0 0 0 0 0 0 0 0 0 0 0 0 0 0 0 0 0 0 0 0 0 0 0 0 0 0 0 0 0 0 0 0 0 0 0 0 0 0 0 0 0 0 0 0
0 0 0 0 0 0 0 0 0 0 0 0 0 0 0 0 0 0 0 0 0 0 0 0 0 0 0 0 0 0 0 0 0 0 0 0 0 0 0 0 0 0 0 0
0 0 0 0 0 0 0 0 0 0 0 0 0 0 0 0 0 0 0 0 0 0 0 0 0 0 0 0 0 0 0 0 0 0 0 0 0 0 0 0 0 0 0 0
0 0 0 0 0 0 0 0 0 0 0 0 0 0 0 0 0 0 0 0 0 0 0 0 0 0 0 0 0 0 0 0 0 0 0 0 0 0 0 0 0 0 0 0
0 0 0 0 0 0 0 0 0 0 0 0 0 0 0 0 0 0 0 0 0 0 0 0 0 0 0 0 0 0 0 0 0 0 0 0 0 0 0 0 0 0 0 0
0 0 0 0 0 0 0 0 0 0 0 0 0 0 0 0 0 0 0 0 0 0 0 0 0 0 0 0 0 0 0 0 0 0 0 0 0 0 0 0 0 0 0 0
0 0 0 0 0 0 0 0 0 0 0 0 0 0 0 0 0 0 0 0 0 0 0 0 0 0 0 0 0 0 0 0 0 0 0 0 0 0 0 0 0 0 0 0
0 0 0 0 0 0 0 0 0 0 0 0 0 0 0 0 0 0 0 0 0 0 0 0 0 0 0 0 0 0 0 0 0 0 0 0 0 0 0 0 0 0 0 0
0 0 0 0 0 0 0 0 0 0 0 0 0 0 0 0 0 0 0 0 0 0 0 0 0 0 0 0 0 0 0 0 0 0 0 0 0 0 0 0 0 0 0 0
0 0 0 0 0 0 0 0 0 0 0 0 0 0 0 0 0 0 0 0 0 0 0 0 0 0 0 0 0 0 0 0 0 0 0 0 0 0 0 0 0 0 0 0
Wind_Speed
9 9 7 7 8 7 8 8 8 8 7 6 3 3 3 3 3 2 1 2 2 1 1 1 1 1 1 1 1 0 1 1 0 1 1 0 1 2 2 1 2 1 1 0
11 9 8 9 9 9 9 8 9 8 8 4 3 4 3 3 3 3 2 2 1 1 0 0 1 0 1 1 1 1 1 0 1 1 1 1 1 1 2 2 2 1 1 1
9 8 9 9 5 5 4 5 5 6 4 5 4 5 5 4 4 4 4 3 2 2 1 1 2 1 1 0 0 0 0 0 0 0 1 1 2 1 1 1 1 2 2 1
7 7 9 1 3 3 1 3 3 3 4 5 4 4 3 3 4 3 3 3 3 2 2 2 1 1 1 1 1 1 1 1 1 0 1 1 1 1 1 1 1 1 1 1
5 6 6 2 2 2 2 3 3 3 4 4 4 3 3 4 4 4 3 3 2 2 2 2 2 2 1 1 1 1 1 1 1 1 1 1 1 1 1 1 2 1 1 1
6 6 6 1 4 3 2 1 3 3 4 4 3 3 3 3 3 4 4 3 3 2 3 2 2 2 2 1 1 1 1 2 2 1 1 1 1 1 1 1 2 1 1 1
8 7 4 2 3 2 1 2 5 5 4 4 3 3 3 4 4 4 3 3 3 2 2 1 1 1 2 2 1 1 1 2 2 1 1 1 1 1 1 1 1 1 1 1
6 7 4 3 2 1 3 4 4 5 5 5 4 4 3 3 3 3 3 3 3 2 2 1 1 1 2 2 2 2 1 1 2 1 1 1 1 1 1 1 1 1 1 1
2 2 1 2 2 3 4 4 4 4 5 5 5 5 3 3 2 2 2 2 2 1 2 1 1 1 1 2 2 2 2 2 2 2 1 1 1 1 1 1 1 1 1 1
4 2 1 0 2 3 3 4 4 4 4 5 5 5 4 3 2 2 2 2 1 1 1 2 1 1 1 1 1 1 2 2 1 2 2 1 1 1 1 1 1 1 1 1
5 4 3 2 2 3 3 4 4 4 4 5 5 5 5 4 3 3 2 2 2 1 1 1 1 0 1 1 1 1 2 1 1 1 1 1 1 1 1 1 1 1 1 1
4 3 4 4 4 4 4 4 4 4 4 4 5 5 5 4 3 2 2 1 2 1 1 1 1 0 1 1 1 1 2 1 1 1 1 1 1 1 2 2 1 1 1 2
4 4 5 6 6 5 4 5 5 4 4 4 4 4 5 5 3 2 2 2 2 2 2 1 0 0 1 1 1 1 1 1 1 1 1 1 1 1 1 2 2 2 3 2
4 5 6 5 6 5 5 5 5 5 4 4 4 4 4 4 4 3 2 2 2 1 1 1 1 0 0 1 1 1 1 1 1 1 1 2 2 2 1 1 2 2 2 3
4 5 5 5 6 6 5 5 5 4 4 4 4 4 4 4 4 4 2 1 1 1 1 1 1 1 0 0 1 1 1 1 1 1 1 2 2 2 2 2 2 2 1 1
5 5 5 5 6 6 5 5 5 5 4 4 4 4 4 4 4 3 1 1 1 2 2 2 1 1 1 0 1 1 1 2 2 2 2 2 2 2 2 2 2 2 1 1
5 5 5 5 5 5 4 4 4 4 4 4 4 4 4 4 3 2 1 1 1 1 0 0 0 1 0 1 1 1 1 1 3 2 2 2 1 2 2 1 1 2 2 2
4 4 4 4 4 4 4 4 4 4 4 4 4 3 3 3 2 1 1 1 1 1 1 1 1 1 1 1 1 0 1 1 1 1 1 1 1 2 2 2 2 2 2 2
3 3 4 4 4 4 4 4 4 4 3 3 3 3 3 2 2 1 1 1 0 0 1 2 3 2 1 2 2 1 1 1 1 1 1 2 2 2 1 1 2 2 2 2
3 3 3 4 4 4 4 4 4 3 2 2 3 3 3 2 1 1 1 1 1 1 2 2 1 1 1 1 3 1 1 1 1 1 1 1 1 1 2 2 2 2 2 2
3 3 3 3 3 3 3 3 3 2 2 2 2 2 2 1 1 1 1 1 2 3 2 2 1 1 1 2 3 1 1 1 1 1 1 1 2 2 2 2 2 2 2 2
3 2 2 3 3 3 2 2 2 2 2 2 2 1 1 1 1 1 1 1 2 3 2 1 1 2 3 3 1 1 1 1 1 1 1 2 2 2 2 2 2 2 3 3
3 3 2 2 2 3 2 2 2 1 1 1 1 1 1 1 1 1 1 1 2 2 2 1 2 3 4 2 1 1 1 1 1 1 1 2 2 2 2 2 2 2 3 3
3 3 3 3 2 2 2 2 2 1 1 1 1 1 1 1 1 2 1 2 3 3 2 1 3 3 4 2 1 1 1 1 2 2 2 2 2 2 2 2 2 2 3 3
3 3 2 2 2 2 2 2 2 1 1 1 1 2 2 1 1 1 2 2 2 2 1 1 2 3 2 2 1 1 1 1 2 2 2 2 2 2 2 2 3 3 3 3
2 2 2 2 2 1 1 1 1 1 1 1 1 1 2 2 2 2 1 1 1 2 1 1 1 2 2 2 2 2 2 2 2 2 2 2 2 2 2 2 4 3 3 3
2 1 1 1 1 1 1 1 1 0 0 0 1 1 1 1 1 1 1 0 0 1 1 1 1 1 1 1 1 2 2 2 2 2 2 2 2 2 3 3 3 3 3 3
Wind_Direction
282 287 295 288 278 271 264 266 273 284 296 317 352 15 27 39 42 46 37 53 64 79 102 116 149 167 129 114 127 177 177 196 254 1 12 338 303 295 300 302 299 300 277 238
279 275 276 277 271 264 264 273 274 281 291 319 354 15 20 29 34 26 16 31 35 37 83 229 228 216 168 177 178 150 187 134 68 31 354 332 298 306 320 316 315 322 306 274
277 281 282 272 281 268 270 288 293 293 321 358 16 16 15 25 33 23 12 14 7 336 263 243 250 236 218 216 299 137 131 128 89 350 327 312 313 320 312 306 299 295 298 293
277 279 265 278 49 42 347 328 327 339 357 359 5 11 7 53 36 11 6 9 359 348 344 333 328 360 58 74 34 52 38 8 10 357 328 317 312 296 290 294 279 274 286 307
270 268 269 263 18 357 304 305 359 347 345 353 359 340 342 26 21 2 3 4 359 349 344 351 8 14 28 36 30 23 9 348 340 334 317 305 294 289 287 290 282 261 255 268
270 271 272 358 37 16 326 274 4 357 352 355 347 319 332 0 10 4 1 1 358 360 1 14 25 21 7 356 15 9 352 331 329 345 346 305 279 291 304 288 274 279 283 268
258 264 270 3 47 17 290 358 15 9 1 348 329 327 345 2 7 359 359 360 1 14 14 4 29 28 1 347 341 346 357 350 338 350 346 337 338 355 332 315 302 291 295 297
252 253 259 55 54 8 9 25 11 4 358 346 340 345 353 350 353 349 346 350 354 354 351 353 25 32 1 344 353 2 6 357 345 343 336 1 25 355 327 324 308 288 283 304
276 262 27 67 35 20 15 356 357 357 352 340 332 331 332 328 325 319 323 326 330 336 321 328 19 34 9 350 5 358 354 348 343 344 343 354 4 353 346 344 330 314 299 280
281 273 310 319 8 0 351 338 340 341 333 326 320 317 313 305 297 298 296 293 298 297 304 318 353 23 14 2 356 344 325 326 335 341 341 355 3 14 4 353 338 330 331 320
267 288 314 335 336 327 325 323 324 325 320 315 311 306 302 292 284 278 275 272 271 263 270 290 314 19 22 358 341 319 310 313 317 341 346 353 4 349 313 266 245 266 274 292
268 313 309 312 321 322 314 310 310 312 313 313 311 310 308 300 294 286 282 283 277 274 284 277 277 333 18 9 348 323 311 316 332 356 349 318 297 324 339 304 309 320 296 286
289 308 311 318 327 330 319 315 315 308 304 306 308 310 309 306 302 292 279 273 267 261 264 256 238 320 15 2 346 326 322 326 331 342 327 304 282 271 302 326 305 293 289 290
298 301 297 304 308 313 311 310 312 312 311 313 316 315 313 312 311 297 278 265 265 253 241 231 202 212 17 347 323 316 317 307 311 299 286 284 273 271 265 275 300 304 285 265
282 290 290 299 300 302 305 310 307 302 309 313 317 313 306 302 299 292 289 285 253 238 232 224 201 184 117 15 277 271 272 275 300 294 273 271 264 261 264 269 275 287 300 272
286 287 289 291 291 294 297 300 298 300 308 309 311 307 304 300 297 295 291 268 254 241 231 221 203 166 135 201 272 274 267 282 289 272 263 269 272 269 267 263 272 280 281 275
276 281 286 288 291 295 295 296 298 303 308 309 312 312 309 308 307 314 329 324 299 283 268 9 62 65 53 257 269 276 266 254 271 277 263 272 275 280 280 274 273 279 278 273
285 292 298 296 296 298 297 298 300 302 307 316 321 313 300 294 300 313 320 323 348 350 17 47 49 23 327 335 328 312 291 278 278 282 286 284 281 273 276 275 276 280 276 269
298 303 304 303 301 300 302 304 302 298 305 312 310 302 301 301 308 326 353 352 359 350 25 40 17 19 36 11 345 313 295 304 310 301 289 290 292 287 289 291 290 289 284 285
285 286 289 292 295 299 301 303 304 305 313 316 311 305 303 305 329 8 4 340 21 43 54 42 18 12 33 4 341 325 318 316 304 295 294 289 294 305 310 309 301 293 291 292
280 290 296 296 300 303 301 301 302 307 317 318 314 313 318 333 352 8 13 4 26 43 48 30 21 20 18 349 331 332 340 333 316 308 309 313 310 305 301 303 308 309 308 306
300 301 303 307 308 308 307 307 315 320 324 328 325 333 351 1 358 7 30 40 46 41 43 29 32 16 0 356 336 328 335 330 320 317 313 306 301 303 305 306 304 307 307 304
313 314 314 315 310 303 306 317 327 332 342 350 341 344 7 2 4 32 18 38 60 23 23 39 19 7 356 349 330 327 342 340 332 323 312 304 302 307 307 307 309 311 309 309
316 320 321 321 314 310 314 325 336 357 21 19 1 17 53 35 19 33 53 58 33 15 25 27 6 353 341 327 329 345 353 343 336 329 326 325 322 316 312 314 314 308 304 308
304 302 305 310 311 318 325 329 343 13 29 32 26 26 35 50 55 48 58 56 37 21 16 338 340 334 324 323 349 350 349 342 335 333 328 325 323 321 319 320 319 313 309 308
291 295 302 305 310 313 312 312 327 353 14 24 23 27 29 43 57 60 71 67 21 4 5 344 313 313 316 336 348 348 344 330 324 322 321 321 324 327 324 324 318 310 308 308
279 288 299 305 308 316 311 301 290 300 348 62 13 14 26 36 43 38 34 37 41 353 328 322 318 317 329 341 342 341 338 340 345 344 338 337 339 335 325 319 315 314 316 316